EW8563 Weather Reports


time (UTC)temp
F
wind
direction
speed
knots
gust
knots
rain 1hr
in
rain 24hr
in
rain mn
in
humidity
%
barometer
mb
20260507012730 70 321 7.0 13.0 0.00 0.00 0.00 63 1016.1
20260507012230 70 309 4.3 11.3 0.00 0.00 0.00 63 1016.1
20260507011730 70 312 6.1 12.2 0.00 0.00 0.00 62 1016.1
20260507011229 71 271 5.2 12.2 0.00 0.00 0.00 62 1015.9
20260507010729 71 299 6.1 12.2 0.00 0.00 0.00 61 1015.9
20260507010229 71 307 5.2 12.2 0.00 0.00 0.00 61 1015.9
20260507005730 72 303 6.1 11.3 0.00 0.00 0.00 61 1015.9
20260507005715 72 283 5.2 11.3 0.00 0.00 0.00 59 1015.9
20260507005212 72 320 7.8 11.3 0.00 0.00 0.00 59 1015.9
20260507004452 72 331 7.0 11.3 0.00 0.00 0.00 58 1015.8
20260507003732 73 272 6.1 10.4 0.00 0.00 0.00 57 1015.9
20260507003455 73 303 5.2 13.9 0.00 0.00 0.00 58 1015.8
20260507002731 72 306 7.0 13.9 0.00 0.00 0.00 58 1015.8
20260507002230 73 313 7.0 13.0 0.00 0.00 0.00 58 1015.8
20260507001730 72 300 6.1 13.0 0.00 0.00 0.00 59 1015.8
20260507001230 72 306 9.6 13.9 0.00 0.00 0.00 58 1015.9
20260507000730 72 296 8.7 13.9 0.00 0.00 0.00 57 1015.8
20260507000230 72 316 6.1 13.9 0.00 0.00 0.00 58 1015.8
20260506235956 72 282 8.7 13.9 0.00 0.00 0.00 57 1015.8
20260506235452 73 254 7.0 13.0 0.00 0.00 0.00 58 1015.8
20260506234729 73 309 6.1 13.0 0.00 0.00 0.00 59 1015.8
20260506234229 72 357 8.7 13.0 0.00 0.00 0.00 59 1015.8
20260506234210 72 269 8.7 15.6 0.00 0.00 0.00 60 1015.8
20260506233227 72 281 10.4 15.6 0.00 0.00 0.00 59 1015.9
20260506232728 72 285 9.6 13.9 0.00 0.00 0.00 59 1015.9
20260506232228 73 312 7.8 13.9 0.00 0.00 0.00 59 1015.9
20260506231726 73 0 8.7 13.9 0.00 0.00 0.00 59 1016.0
20260506231228 72 299 5.2 13.9 0.00 0.00 0.00 60 1015.9
20260506230953 72 276 9.6 16.5 0.00 0.00 0.00 61 1016.0
20260506230226 72 300 7.8 16.5 0.00 0.00 0.00 60 1016.1
20260506225727 73 243 8.7 13.9 0.00 0.00 0.00 59 1016.1
20260506225226 73 341 6.1 13.0 0.00 0.00 0.00 59 1016.2
20260506224728 73 329 9.6 13.9 0.00 0.00 0.00 58 1016.2
20260506224226 73 314 7.8 13.9 0.00 0.00 0.00 58 1016.2
20260506223727 73 299 7.8 12.2 0.00 0.00 0.00 59 1016.2
20260506223227 73 268 7.0 11.3 0.00 0.00 0.00 58 1016.3
20260506222726 73 258 7.8 11.3 0.00 0.00 0.00 58 1016.3
20260506222447 73 289 5.2 11.3 0.00 0.00 0.00 59 1016.3
20260506221727 73 347 6.1 11.3 0.00 0.00 0.00 58 1016.5
20260506221227 73 336 7.8 10.4 0.00 0.00 0.00 58 1016.4
20260506220951 72 341 6.1 11.3 0.00 0.00 0.00 57 1016.5
20260506220227 73 286 7.0 11.3 0.00 0.00 0.00 57 1016.6
20260506215728 72 319 6.1 12.2 0.00 0.00 0.00 58 1016.6
20260506215228 72 334 7.0 12.2 0.00 0.00 0.00 58 1016.7
20260506214725 71 275 7.0 12.2 0.00 0.00 0.00 60 1016.7
20260506214452 72 278 3.5 12.2 0.00 0.00 0.00 59 1016.9
20260506213725 72 309 5.2 10.4 0.00 0.00 0.00 59 1016.8
20260506213225 72 317 5.2 9.6 0.00 0.00 0.00 58 1016.9
20260506212726 72 289 6.1 10.4 0.00 0.00 0.00 58 1016.9
20260506212226 71 334 6.1 10.4 0.00 0.00 0.00 61 1017.0
20260506211724 71 293 4.3 9.6 0.00 0.00 0.00 59 1017.0
20260506211225 71 275 4.3 12.2 0.00 0.00 0.00 60 1017.1
20260506210723 71 298 8.7 12.2 0.00 0.00 0.00 59 1017.1
20260506210224 71 300 6.1 12.2 0.00 0.00 0.00 60 1017.0
20260506205724 71 288 5.2 12.2 0.00 0.00 0.00 61 1017.1
20260506205225 71 303 5.2 11.3 0.00 0.00 0.00 61 1017.0
20260506204723 71 261 7.0 11.3 0.00 0.00 0.00 60 1017.2
20260506204223 71 272 7.0 10.4 0.00 0.00 0.00 60 1017.2
20260506203949 70 281 5.2 12.2 0.00 0.00 0.00 61 1017.3
20260506203224 71 271 8.7 12.2 0.00 0.00 0.00 59 1017.4
20260506202723 71 334 6.1 9.6 0.00 0.00 0.00 61 1017.5
20260506202223 70 345 5.2 8.7 0.00 0.00 0.00 61 1017.6
20260506201723 70 319 4.3 9.6 0.00 0.00 0.00 61 1017.5
20260506201222 70 300 6.1 12.2 0.00 0.00 0.00 61 1017.5
20260506200723 69 309 3.5 12.2 0.00 0.00 0.00 62 1017.6
20260506200446 69 281 5.2 9.6 0.00 0.00 0.00 62 1017.6
20260506195947 68 257 6.1 8.7 0.00 0.00 0.00 64 1017.6
20260506195448 68 290 5.2 12.2 0.00 0.00 0.00 64 1017.7
20260506194723 68 245 4.3 12.2 0.00 0.00 0.00 62 1017.7
20260506194223 68 274 4.3 11.3 0.00 0.00 0.00 65 1017.7
20260506193722 67 276 3.5 11.3 0.00 0.00 0.00 66 1017.7
20260506193222 67 271 7.0 11.3 0.00 0.00 0.00 64 1017.8
20260506192722 67 290 3.5 9.6 0.00 0.00 0.00 66 1017.8
20260506192223 66 279 6.1 10.4 0.00 0.00 0.00 67 1018.0
20260506191724 66 285 7.0 10.4 0.00 0.00 0.00 67 1018.0
20260506191224 65 286 2.6 8.7 0.00 0.00 0.00 68 1018.0
20260506190723 65 259 3.5 6.1 0.00 0.00 0.00 67 1018.1
20260506190223 65 286 3.5 8.7 0.00 0.00 0.00 67 1018.1
20260506185941 65 316 4.3 9.6 0.00 0.00 0.00 68 1018.1
20260506185442 65 289 5.2 10.4 0.00 0.00 0.00 67 1018.1
20260506184720 66 285 5.2 10.4 0.00 0.00 0.00 67 1018.1
20260506184220 65 333 3.5 12.2 0.00 0.00 0.00 67 1018.2
20260506183721 65 271 4.3 12.2 0.00 0.00 0.00 67 1018.3
20260506183221 65 295 3.5 10.4 0.00 0.00 0.00 68 1018.2
20260506182720 65 281 6.1 11.3 0.00 0.00 0.00 69 1018.3
20260506182220 64 257 5.2 11.3 0.00 0.00 0.00 70 1018.3
20260506181943 64 295 4.3 8.7 0.00 0.00 0.00 70 1018.3
20260506181221 64 262 4.3 9.6 0.00 0.00 0.00 69 1018.3
20260506180941 63 285 7.0 10.4 0.00 0.00 0.00 71 1018.3
20260506180220 62 296 5.2 10.4 0.00 0.00 0.00 72 1018.3
20260506175720 62 278 6.1 10.4 0.00 0.00 0.00 70 1018.3
20260506175220 63 275 4.3 7.8 0.00 0.00 0.00 71 1018.3
20260506174942 62 292 3.5 9.6 0.00 0.00 0.00 72 1018.3
20260506174221 62 292 7.0 9.6 0.00 0.00 0.00 71 1018.4
20260506173719 63 292 5.2 11.3 0.00 0.00 0.00 71 1018.3
20260506173218 63 305 6.1 11.3 0.00 0.00 0.00 71 1018.4
20260506172718 62 275 3.5 11.3 0.00 0.00 0.00 72 1018.4
20260506172219 61 293 6.1 11.3 0.00 0.00 0.00 73 1018.4
20260506171719 61 279 6.1 10.4 0.00 0.00 0.00 73 1018.3
20260506171220 61 258 5.2 8.7 0.00 0.00 0.00 73 1018.3
20260506170720 61 289 2.6 8.7 0.00 0.00 0.00 73 1018.4
20260506170221 61 309 1.7 6.1 0.00 0.00 0.00 74 1018.4
20260506165720 61 343 3.5 6.1 0.00 0.00 0.00 74 1018.3
20260506165219 61 289 1.7 8.7 0.00 0.00 0.00 74 1018.3
20260506164719 61 299 5.2 8.7 0.00 0.00 0.00 74 1018.3
20260506164221 61 296 2.6 8.7 0.00 0.00 0.00 74 1018.4
20260506163719 61 289 4.3 8.7 0.00 0.00 0.00 74 1018.4
20260506163218 61 275 3.5 6.1 0.00 0.00 0.00 75 1018.4
20260506162939 61 261 3.5 5.2 0.00 0.00 0.00 74 1018.3
20260506162218 60 338 1.7 5.2 0.00 0.00 0.00 75 1018.3
20260506161936 60 321 3.5 5.2 0.00 0.00 0.00 76 1018.4
20260506161218 60 257 2.6 4.3 0.00 0.00 0.00 75 1018.4
20260506160717 60 295 1.7 4.3 0.00 0.00 0.00 76 1018.3
20260506160217 60 306 2.6 4.3 0.00 0.00 0.00 76 1018.3
20260506155717 59 324 1.7 4.3 0.00 0.00 0.00 78 1018.4
20260506155216 59 314 3.5 4.3 0.00 0.00 0.00 78 1018.3
20260506154716 59 303 1.7 4.3 0.00 0.00 0.00 79 1018.3
20260506154216 58 283 2.6 4.3 0.00 0.00 0.00 80 1018.3
20260506154200 58 275 2.6 3.5 0.00 0.00 0.00 82 1018.4
20260506153216 58 186 0.9 1.7 0.00 0.00 0.00 82 1018.3
20260506153211 57 183 0.9 1.7 0.00 0.00 0.00 82 1018.2
20260506152217 57 182 0.9 2.6 0.00 0.00 0.00 82 1018.3
20260506151716 57 176 0.9 2.6 0.00 0.00 0.00 83 1018.3
20260506151216 57 176 0.0 1.7 0.00 0.00 0.00 84 1018.3
20260506150936 56 175 0.9 2.6 0.00 0.00 0.00 84 1018.4
20260506150439 56 155 1.7 2.6 0.00 0.00 0.00 84 1018.3
20260506145719 56 135 0.9 3.5 0.00 0.00 0.00 85 1018.3
20260506145217 56 134 1.7 3.5 0.00 0.00 0.00 85 1018.3
20260506144717 55 69 1.7 2.6 0.00 0.00 0.00 85 1018.3
20260506144217 55 58 1.7 2.6 0.00 0.00 0.00 85 1018.4
20260506143716 55 39 1.7 2.6 0.00 0.00 0.00 86 1018.3
20260506143216 55 38 1.7 2.6 0.00 0.00 0.00 86 1018.2
20260506142716 55 38 1.7 2.6 0.00 0.00 0.00 86 1018.2
20260506142217 55 38 0.0 0.0 0.00 0.00 0.00 86 1018.2
20260506141717 55 37 0.0 0.0 0.00 0.00 0.00 86 1018.3
20260506141216 55 37 0.0 0.0 0.00 0.00 0.00 86 1018.2
20260506140717 54 37 0.0 0.0 0.00 0.00 0.00 86 1018.0
20260506140214 54 37 0.0 0.0 0.00 0.00 0.00 86 1017.9
20260506135714 54 37 0.0 0.0 0.00 0.00 0.00 86 1017.9
20260506135440 54 37 0.0 0.0 0.00 0.00 0.00 86 1017.9
20260506134714 54 37 0.0 0.0 0.00 0.00 0.00 85 1017.8
20260506134214 54 37 0.0 0.0 0.00 0.00 0.00 85 1017.7
20260506133715 54 37 0.0 0.0 0.00 0.00 0.00 85 1017.6
20260506133214 54 37 0.0 0.0 0.00 0.00 0.00 85 1017.5
20260506132713 54 37 0.0 0.0 0.00 0.00 0.00 85 1017.5
20260506132214 55 37 0.0 0.0 0.00 0.00 0.00 85 1017.4
20260506131713 55 37 0.0 0.0 0.00 0.00 0.00 85 1017.4
20260506131436 55 37 0.0 0.0 0.00 0.00 0.00 85 1017.4
20260506130714 55 37 0.0 0.0 0.00 0.00 0.00 85 1017.3
20260506130214 55 39 0.0 0.0 0.00 0.00 0.00 85 1017.3
20260506125936 55 39 0.0 0.0 0.00 0.00 0.00 86 1017.3
20260506125213 55 39 0.0 0.0 0.00 0.00 0.00 86 1017.3
20260506124712 55 39 0.0 0.0 0.00 0.00 0.00 86 1017.2
20260506124213 55 39 0.0 0.0 0.00 0.00 0.00 86 1017.2
20260506123712 55 39 0.0 0.0 0.00 0.00 0.00 86 1017.2
20260506123438 55 39 0.0 0.0 0.00 0.00 0.00 86 1017.2
20260506122713 55 39 0.0 0.0 0.00 0.00 0.00 86 1017.3
20260506122213 54 39 0.0 0.0 0.00 0.00 0.00 86 1017.2
20260506121713 54 39 0.0 0.0 0.00 0.00 0.00 86 1017.2
20260506121442 54 39 0.0 0.0 0.00 0.00 0.00 86 1017.2
20260506120712 54 39 0.0 0.0 0.00 0.00 0.00 86 1017.2
20260506120211 54 39 0.0 0.0 0.00 0.00 0.00 86 1017.1
20260506115712 54 39 0.0 0.0 0.00 0.00 0.00 87 1017.0
20260506115212 54 39 0.0 0.0 0.00 0.00 0.00 87 1017.1
20260506114711 54 39 0.0 0.0 0.00 0.00 0.00 87 1017.0
20260506114430 54 39 0.0 0.0 0.00 0.00 0.00 87 1016.9
20260506114200 54 39 0.0 0.0 0.00 0.00 0.00 87 1017.0
20260506113211 54 39 0.0 0.0 0.00 0.00 0.00 87 1017.0
20260506112711 54 39 0.0 0.0 0.00 0.00 0.00 87 1016.9
20260506112211 54 39 0.0 0.0 0.00 0.00 0.00 87 1016.9
20260506111708 54 39 0.0 1.7 0.00 0.00 0.00 87 1016.9
20260506111206 53 39 0.0 1.7 0.00 0.00 0.00 87 1016.8
20260506110702 53 39 0.0 2.6 0.00 0.00 0.00 87 1016.8
20260506110202 53 39 0.9 2.6 0.00 0.00 0.00 87 1016.9
20260506105704 53 38 0.9 2.6 0.00 0.00 0.00 87 1016.9
20260506105202 53 44 1.7 2.6 0.00 0.00 0.00 87 1016.9
20260506104703 53 44 1.7 3.5 0.00 0.00 0.00 87 1016.9
20260506104201 53 44 1.7 3.5 0.00 0.00 0.00 87 1016.8
20260506103659 53 44 2.6 2.6 0.00 0.00 0.00 87 1016.8
20260506103156 53 44 1.7 3.5 0.00 0.00 0.00 87 1016.7
20260506102653 53 44 2.6 3.5 0.00 0.00 0.00 87 1016.7
20260506102150 53 45 2.6 3.5 0.00 0.00 0.00 87 1016.8
20260506101651 53 55 1.7 3.5 0.00 0.00 0.00 87 1016.7
20260506101150 53 55 1.7 3.5 0.00 0.00 0.00 88 1016.7
20260506100913 53 58 1.7 2.6 0.00 0.00 0.00 87 1016.6
20260506100147 53 63 1.7 2.6 0.00 0.00 0.00 87 1016.7
20260506095646 53 65 1.7 2.6 0.00 0.00 0.00 87 1016.6
20260506095408 53 63 0.9 2.6 0.00 0.00 0.00 87 1016.7
20260506094645 53 65 1.7 2.6 0.00 0.00 0.00 86 1016.7
20260506094145 53 65 1.7 2.6 0.00 0.00 0.00 86 1016.6
20260506093904 53 71 1.7 2.6 0.00 0.00 0.00 86 1016.6
20260506093144 54 71 1.7 2.6 0.00 0.00 0.00 86 1016.7
20260506092640 54 71 1.7 2.6 0.00 0.00 0.00 87 1016.7
20260506092403 53 75 0.9 2.6 0.00 0.00 0.00 86 1016.7
20260506091640 54 80 0.0 3.5 0.00 0.00 0.00 86 1016.7
20260506091137 54 80 1.7 3.5 0.00 0.00 0.00 86 1016.8
20260506090638 54 338 0.9 1.7 0.00 0.00 0.00 86 1016.9
20260506090136 54 338 0.0 1.7 0.00 0.00 0.00 86 1016.8
20260506085635 54 338 0.9 3.5 0.00 0.00 0.00 86 1016.7
20260506085133 54 338 1.7 3.5 0.00 0.00 0.00 86 1016.7
20260506084632 54 338 2.6 3.5 0.00 0.00 0.00 86 1016.6
20260506084133 54 338 1.7 2.6 0.00 0.00 0.00 86 1016.6
20260506083632 54 338 1.7 2.6 0.00 0.00 0.00 86 1016.7
20260506083133 54 338 1.7 2.6 0.00 0.00 0.00 86 1016.7
20260506082634 54 338 1.7 3.5 0.00 0.00 0.00 86 1016.8
20260506082131 54 338 1.7 3.5 0.00 0.00 0.00 85 1016.8
20260506081853 54 334 3.5 3.5 0.00 0.00 0.00 85 1016.8
20260506081132 54 327 0.9 2.6 0.00 0.00 0.00 85 1016.7
20260506080631 55 327 1.7 3.5 0.00 0.00 0.00 84 1016.7
20260506080130 55 326 1.7 3.5 0.00 0.00 0.00 84 1016.8
20260506073132 55 326 3.5 4.3 0.00 0.00 0.00 84 1016.7
20260506072632 55 324 2.6 4.3 0.00 0.00 0.00 84 1016.6
20260506072133 55 330 1.7 4.3 0.00 0.00 0.00 84 1016.5
20260506071633 55 340 1.7 3.5 0.00 0.00 0.00 84 1016.5
20260506071131 55 340 1.7 2.6 0.00 0.00 0.00 83 1016.5
20260506070632 55 340 1.7 2.6 0.00 0.00 0.00 83 1016.4
20260506070131 55 344 0.0 2.6 0.00 0.00 0.00 83 1016.4
20260506062124 56 326 2.6 6.1 0.00 0.00 0.00 82 1016.1
20260506061622 56 336 3.5 7.8 0.00 0.00 0.00 81 1016.1
20260506061117 56 331 4.3 7.8 0.00 0.00 0.00 82 1016.1
20260506060615 56 317 3.5 5.2 0.00 0.00 0.00 81 1016.0
20260506060116 56 326 2.6 5.2 0.00 0.00 0.00 81 1015.8
20260506051102 57 313 5.2 8.7 0.00 0.00 0.00 81 1015.6
20260506050603 57 336 4.3 9.6 0.00 0.00 0.00 80 1015.7
20260506050103 57 340 7.0 11.3 0.00 0.00 0.00 80 1015.6
20260506044604 58 299 4.3 9.6 0.00 0.00 0.00 79 1015.5
20260506044104 58 336 7.0 10.4 0.00 0.00 0.00 79 1015.4
20260506043603 58 310 5.2 10.4 0.00 0.00 0.00 79 1015.4
20260506043105 58 319 4.3 6.1 0.00 0.00 0.00 78 1015.4
20260506042604 58 316 2.6 4.3 0.00 0.00 0.00 78 1015.2
20260506042103 58 319 1.7 3.5 0.00 0.00 0.00 78 1015.4
20260506041603 58 317 1.7 3.5 0.00 0.00 0.00 77 1015.2
20260506041104 58 316 1.7 4.3 0.00 0.00 0.00 77 1015.2
20260506040824 58 323 3.5 4.3 0.00 0.00 0.00 77 1015.1
20260506035829 58 337 2.6 4.3 0.00 0.00 0.00 77 1014.8
20260506035103 58 340 3.5 6.1 0.00 0.00 0.00 77 1014.9
20260506034823 58 327 3.5 7.8 0.00 0.00 0.00 77 1014.8
20260506034102 58 336 4.3 7.8 0.00 0.00 0.00 77 1014.8
20260506033602 58 300 3.5 7.8 0.00 0.00 0.00 77 1014.6
20260506033059 58 336 4.3 8.7 0.00 0.00 0.00 77 1014.5
20260506032600 58 327 4.3 9.6 0.00 0.00 0.00 77 1014.4
20260506032102 58 324 5.2 9.6 0.00 0.00 0.00 77 1014.3
20260506031602 58 321 5.2 8.7 0.00 0.00 0.00 77 1014.4
20260506031326 58 338 4.3 8.7 0.00 0.00 0.00 77 1014.3
20260506030602 58 321 5.2 7.8 0.00 0.00 0.00 77 1014.3
20260506025600 58 319 3.5 6.1 0.00 0.00 0.00 77 1014.1
20260506025059 59 326 3.5 6.1 0.00 0.00 0.00 76 1014.1
20260506024559 59 340 3.5 4.3 0.00 0.00 0.00 76 1014.1
20260506024059 59 309 2.6 6.1 0.00 0.00 0.00 76 1014.0
20260506023819 59 0 3.5 6.1 0.00 0.00 0.00 76 1014.0
20260506023101 59 324 2.6 5.2 0.00 0.00 0.00 76 1014.0
20260506022558 59 331 2.6 5.2 0.00 0.00 0.00 76 1013.9
20260506022059 59 319 2.6 5.2 0.00 0.00 0.00 76 1013.9
20260506021600 59 320 3.5 4.3 0.00 0.00 0.00 76 1013.9
20260506021100 59 313 2.6 5.2 0.00 0.00 0.00 76 1013.8
20260506020816 59 316 3.5 6.1 0.00 0.00 0.00 75 1013.8
20260506020057 59 326 3.5 6.1 0.00 0.00 0.00 75 1013.8
20260506020042 60 319 4.3 7.8 0.00 0.00 0.00 75 1013.8
20260506015053 60 286 4.3 7.8 0.00 0.00 0.00 75 1013.8
20260506014554 60 344 4.3 6.1 0.00 0.00 0.00 75 1013.9
20260506014053 60 305 2.6 7.8 0.00 0.00 0.00 75 1013.9
20260506013819 60 330 2.6 8.7 0.00 0.00 0.00 74 1014.0
20260506013052 60 303 3.5 8.7 0.00 0.00 0.00 74 1013.9